This demonstration page uses our WeatherBlox Daily Observations layout. Learn more.

Left ArrowRight Arrow

40.92945, -100.16068

Hourly Observations for February 24, 2018

Temp ( °F °C ) Dew Point ( °F °C ) Humidity (%) Winds ( mph kmh ) Pressure ( in mb ) Visibility ( mi km ) Precip ( " mm )
12:15 am 00:15 Cloudy 23 -5.2 20 -6.4 91 91 ESE 8 13 30.27 1025 10 16 N/A
12:35 am 00:35 Cloudy 23 -5 21 -6.3 91 91 E 7 11 30.24 1024 10 16 N/A
12:55 am 00:55 Cloudy 23 -4.8 21 -6 91 91 E 8 13 30.24 1024 10 16 N/A
1:15 am 01:15 Cloudy 23 -4.8 21 -6.2 90 90 E 7 11 30.18 1022 10 16 N/A
1:35 am 01:35 Cloudy 23 -5 20 -6.5 89 89 ESE 8 13 30.21 1023 10 16 N/A
1:55 am 01:55 Cloudy 23 -5 20 -6.5 89 89 E 9 15 30.21 1023 10 16 N/A
2:15 am 02:15 Cloudy 23 -5 20 -6.4 90 90 E 5 7 30.21 1023 10 16 N/A
2:35 am 02:35 Cloudy 23 -5 21 -6.3 91 91 E 6 9 30.21 1023 7 11 N/A
2:55 am 02:55 Cloudy 23 -5 20 -6.5 89 89 E 5 7 30.15 1021 10 16 N/A
3:15 am 03:15 Cloudy 23 -5 20 -6.5 89 89 E 6 9 30.12 1020 10 16 N/A
3:35 am 03:35 Cloudy 23 -5 21 -6.3 91 91 SE 5 7 30.12 1020 10 16 N/A
3:55 am 03:55 Cloudy 23 -5 20 -6.4 90 90 E 5 7 30.12 1020 7 11 N/A
4:15 am 04:15 Cloudy with Mist and Fog 23 -5.1 21 -6.2 92 92 E 6 9 30.12 1020 4 6 N/A
4:35 am 04:35 Cloudy with Mist and Fog 23 -5.2 21 -6.2 93 93 SE 5 7 30.09 1019 1 2 N/A
4:55 am 04:55 Cloudy with Mist and Fog 23 -5.2 21 -6.2 93 93 ESE 6 9 30.12 1020 2 3 N/A
5:15 am 05:15 Cloudy with Light Snow 23 -5.1 21 -6.1 93 93 SE 6 9 30.09 1019 1 2 N/A
5:35 am 05:35 Cloudy with Mist and Fog 23 -5 21 -6 93 93 ESE 7 11 30.09 1019 2 3 N/A
5:55 am 05:55 Cloudy with Mist and Fog 23 -5 21 -6.1 92 92 SE 5 7 30.09 1019 3 4 N/A
6:15 am 06:15 Cloudy with Mist and Fog 23 -5 21 -6 93 93 SE 5 7 30.06 1018 3 4 N/A
6:35 am 06:35 Cloudy with Mist and Fog 23 -4.8 21 -6 91 91 ESE 7 11 30.06 1018 3 5 N/A
6:55 am 06:55 Cloudy with Mist and Fog 23 -4.8 21 -6 91 91 ESE 5 7 30.03 1017 3 5 N/A
7:15 am 07:15 Cloudy with Mist and Fog 23 -4.9 21 -6 92 92 SSE 5 7 30.03 1017 4 6 N/A
7:35 am 07:35 Cloudy with Mist and Fog 23 -4.9 21 -6 92 92 SE 3 6 30.03 1017 3 5 N/A
7:55 am 07:55 Cloudy with Mist and Fog 23 -4.8 21 -6 91 91 S 3 6 30.03 1017 3 5 N/A
8:15 am 08:15 Cloudy with Mist and Fog 24 -4.7 22 -5.8 92 92 S 3 6 30.06 1018 4 6 N/A
8:35 am 08:35 Cloudy with Mist and Fog 24 -4.5 22 -5.6 92 92 S 3 6 30.03 1017 4 6 N/A
8:55 am 08:55 Cloudy with Light Snow 24 -4.5 22 -5.6 92 92 S 5 7 30.03 1017 4 6 N/A
9:15 am 09:15 Cloudy with Mist and Fog 24 -4.2 23 -5.2 93 93 S 6 9 30.00 1016 4 6 N/A
9:35 am 09:35 Cloudy with Mist and Fog 25 -4 23 -5.1 92 92 SSE 5 7 30.00 1016 5 8 N/A
9:55 am 09:55 Cloudy with Mist and Fog 25 -4 23 -5 93 93 SSE 5 7 29.97 1015 5 8 N/A
10:15 am 10:15 Cloudy with Mist and Fog 26 -3.5 24 -4.5 93 93 S 5 7 29.94 1014 3 5 N/A
10:35 am 10:35 Cloudy with Light Snow 26 -3.2 24 -4.2 93 93 SSW 5 7 29.91 1013 2 3 N/A
10:55 am 10:55 Cloudy with Light Snow 27 -2.8 25 -4 92 92 SW 5 7 29.91 1013 5 8 N/A
11:15 am 11:15 Cloudy with Light Snow 28 -2.2 25 -3.9 88 88 WSW 7 11 29.88 1012 2 3 N/A
11:35 am 11:35 Cloudy with Light Snow 28 -2 25 -3.7 88 88 WSW 7 11 29.88 1012 2 3 N/A
11:55 am 11:55 Cloudy with Light Snow 29 -1.7 25 -3.7 86 86 WSW 7 11 29.88 1012 3 5 N/A
12:15 pm 12:15 Cloudy with Light Snow 30 -1.1 26 -3.3 85 85 WSW 8 13 29.85 1011 1 1 N/A
12:35 pm 12:35 Cloudy with Light Snow 30 -1 27 -2.7 88 88 WSW 8 13 29.85 1011 1 1 N/A
12:55 pm 12:55 Cloudy with Light Snow 30 -1 27 -2.8 88 88 W 12 19 29.83 1010 3 4 N/A
1:15 pm 13:15 Cloudy 32 -0.1 28 -2.4 85 85 W 10 17 29.83 1010 10 16 N/A
1:35 pm 13:35 Cloudy 32 undefined 28 -2.5 83 83 W 16 26 29.83 1010 10 16 N/A
1:55 pm 13:55 Mostly Cloudy 33 0.6 28 -2.2 82 82 W 16 26 29.83 1010 10 16 N/A
2:15 pm 14:15 Partly Cloudy 34 1.2 28 -2.2 78 78 WNW 16 26 29.77 1008 10 16 N/A
2:35 pm 14:35 Sunny 36 2 28 -2.4 73 73 W 14 22 29.77 1008 10 16 N/A
2:55 pm 14:55 Sunny 37 2.7 27 -3 66 66 WNW 16 26 29.77 1008 10 16 N/A
3:15 pm 15:15 Sunny 38 3.1 25 -3.7 61 61 WNW 23 37 29.77 1008 10 16 N/A
3:35 pm 15:35 Sunny 38 3.1 23 -4.8 57 57 WNW 24 39 29.77 1008 10 16 N/A
3:55 pm 15:55 Partly Cloudy 38 3.1 25 -4.1 60 60 WNW 25 41 29.77 1008 10 16 N/A
4:15 pm 16:15 Partly Cloudy 37 2.6 21 -6.2 53 53 WNW 24 39 29.80 1009 10 16 N/A
4:35 pm 16:35 Sunny 37 2.5 22 -5.6 56 56 WNW 23 37 29.80 1009 10 16 N/A
4:55 pm 16:55 Sunny 36 2.3 22 -5.8 55 55 WNW 17 28 29.80 1009 10 16 N/A
5:15 pm 17:15 Sunny 36 2 20 -6.4 54 54 WNW 20 31 29.83 1010 10 16 N/A
5:35 pm 17:35 Sunny 35 1.6 20 -6.8 54 54 WNW 18 30 29.83 1010 10 16 N/A
5:55 pm 17:55 Sunny 34 1 19 -7.1 55 55 WNW 20 31 29.85 1011 10 16 N/A
6:15 pm 18:15 Sunny 33 0.5 20 -6.9 58 58 WNW 17 28 29.85 1011 10 16 N/A
6:35 pm 18:35 Clear 32 undefined 20 -6.9 60 60 WNW 17 28 29.88 1012 10 16 N/A
6:55 pm 18:55 Clear 32 -0.2 20 -6.8 61 61 WNW 20 31 29.88 1012 10 16 N/A
7:15 pm 19:15 Clear 31 -0.5 19 -7 62 62 WNW 20 31 29.88 1012 10 16 N/A
7:35 pm 19:35 Clear 31 -0.7 19 -7.1 62 62 WNW 18 30 29.91 1013 10 16 N/A
7:55 pm 19:55 Clear 30 -1 19 -7.5 62 62 WNW 20 31 29.91 1013 10 16 N/A
8:15 pm 20:15 Clear 29 -1.6 19 -7.5 64 64 WNW 14 22 29.94 1014 10 16 N/A
8:35 pm 20:35 Clear 28 -2.5 19 -7.1 71 71 W 8 13 29.94 1014 10 16 N/A
8:55 pm 20:55 Clear 27 -2.6 19 -7.3 70 70 W 10 17 29.94 1014 10 16 N/A
9:15 pm 21:15 Clear 27 -2.7 19 -7.5 70 70 W 8 13 29.97 1015 10 16 N/A
9:35 pm 21:35 Clear 27 -2.8 18 -7.6 70 70 WSW 9 15 29.97 1015 10 16 N/A
9:55 pm 21:55 Clear 27 -2.6 18 -7.9 67 67 W 10 17 29.97 1015 10 16 N/A
10:15 pm 22:15 Clear 26 -3.3 18 -8 70 70 W 9 15 29.97 1015 10 16 N/A
10:35 pm 22:35 Clear 25 -3.9 18 -7.8 75 75 W 9 15 30.00 1016 10 16 N/A
10:55 pm 22:55 Clear 26 -3.5 18 -8 71 71 W 10 17 29.97 1015 10 16 N/A
11:15 pm 23:15 Clear 27 -3 17 -8.4 67 67 W 10 17 29.97 1015 10 16 N/A
11:35 pm 23:35 Clear 26 -3.5 17 -8.6 68 68 W 9 15 29.97 1015 10 16 N/A
11:55 pm 23:55 Clear 26 -3.6 16 -8.7 68 68 W 9 15 29.97 1015 10 16 N/A

Powered by AerisWeather